Year,Month,Day,Hour,Minute,Value (Times are PST for insolation in W/m^2)
2009,07,11,00,00,0.00
2009,07,11,00,01,0.00
2009,07,11,00,02,0.00
2009,07,11,00,03,0.00
2009,07,11,00,04,0.00
2009,07,11,00,05,0.00
2009,07,11,00,06,0.00
2009,07,11,00,07,0.00
2009,07,11,00,08,0.00
2009,07,11,00,09,0.00
2009,07,11,00,10,0.00
2009,07,11,00,11,0.00
2009,07,11,00,12,0.00
2009,07,11,00,13,0.00
2009,07,11,00,14,0.00
2009,07,11,00,15,0.00
2009,07,11,00,16,0.00
2009,07,11,00,17,0.00
2009,07,11,00,18,0.00
2009,07,11,00,19,0.00
2009,07,11,00,20,0.00
2009,07,11,00,21,0.00
2009,07,11,00,22,0.00
2009,07,11,00,23,0.00
2009,07,11,00,24,0.00
2009,07,11,00,25,0.00
2009,07,11,00,26,0.00
2009,07,11,00,27,0.00
2009,07,11,00,28,0.00
2009,07,11,00,29,0.00
2009,07,11,00,30,0.00
2009,07,11,00,31,0.00
2009,07,11,00,32,0.00
2009,07,11,00,33,0.00
2009,07,11,00,34,0.00
2009,07,11,00,35,0.00
2009,07,11,00,36,0.00
2009,07,11,00,37,0.00
2009,07,11,00,38,0.00
2009,07,11,00,39,0.00
2009,07,11,00,40,0.00
2009,07,11,00,41,0.00
2009,07,11,00,42,0.00
2009,07,11,00,43,0.00
2009,07,11,00,44,0.00
2009,07,11,00,45,0.00
2009,07,11,00,46,0.00
2009,07,11,00,47,0.00
2009,07,11,00,48,0.00
2009,07,11,00,49,0.00
2009,07,11,00,50,0.00
2009,07,11,00,51,0.00
2009,07,11,00,52,0.00
2009,07,11,00,53,0.00
2009,07,11,00,54,0.00
2009,07,11,00,55,0.00
2009,07,11,00,56,0.00
2009,07,11,00,57,0.00
2009,07,11,00,58,0.00
2009,07,11,00,59,0.00
2009,07,11,01,00,0.00
2009,07,11,01,01,0.00
2009,07,11,01,02,0.00
2009,07,11,01,03,0.00
2009,07,11,01,04,0.00
2009,07,11,01,05,0.00
2009,07,11,01,06,0.00
2009,07,11,01,07,0.00
2009,07,11,01,08,0.00
2009,07,11,01,09,0.00
2009,07,11,01,10,0.00
2009,07,11,01,11,0.00
2009,07,11,01,12,0.00
2009,07,11,01,13,0.00
2009,07,11,01,14,0.00
2009,07,11,01,15,0.00
2009,07,11,01,16,0.00
2009,07,11,01,17,0.00
2009,07,11,01,18,0.00
2009,07,11,01,19,0.00
2009,07,11,01,20,0.00
2009,07,11,01,21,0.00
2009,07,11,01,22,0.00
2009,07,11,01,23,0.00
2009,07,11,01,24,0.00
2009,07,11,01,25,0.00
2009,07,11,01,26,0.00
2009,07,11,01,27,0.00
2009,07,11,01,28,0.00
2009,07,11,01,29,0.00
2009,07,11,01,30,0.00
2009,07,11,01,31,0.00
2009,07,11,01,32,0.00
2009,07,11,01,33,0.00
2009,07,11,01,34,0.00
2009,07,11,01,35,0.00
2009,07,11,01,36,0.00
2009,07,11,01,37,0.00
2009,07,11,01,38,0.00
2009,07,11,01,39,0.00
2009,07,11,01,40,0.00
2009,07,11,01,41,0.00
2009,07,11,01,42,0.00
2009,07,11,01,43,0.00
2009,07,11,01,44,0.00
2009,07,11,01,45,0.00
2009,07,11,01,46,0.00
2009,07,11,01,47,0.00
2009,07,11,01,48,0.00
2009,07,11,01,49,0.00
2009,07,11,01,50,0.00
2009,07,11,01,51,0.00
2009,07,11,01,52,0.00
2009,07,11,01,53,0.00
2009,07,11,01,54,0.00
2009,07,11,01,55,0.00
2009,07,11,01,56,0.00
2009,07,11,01,57,0.00
2009,07,11,01,58,0.00
2009,07,11,01,59,0.00
2009,07,11,02,00,0.00
2009,07,11,02,01,0.00
2009,07,11,02,02,0.00
2009,07,11,02,03,0.00
2009,07,11,02,04,0.00
2009,07,11,02,05,0.00
2009,07,11,02,06,0.00
2009,07,11,02,07,0.00
2009,07,11,02,08,0.00
2009,07,11,02,09,0.00
2009,07,11,02,10,0.00
2009,07,11,02,11,0.00
2009,07,11,02,12,0.00
2009,07,11,02,13,0.00
2009,07,11,02,14,0.00
2009,07,11,02,15,0.00
2009,07,11,02,16,0.00
2009,07,11,02,17,0.00
2009,07,11,02,18,0.00
2009,07,11,02,19,0.00
2009,07,11,02,20,0.00
2009,07,11,02,21,0.00
2009,07,11,02,22,0.00
2009,07,11,02,23,0.00
2009,07,11,02,24,0.00
2009,07,11,02,25,0.00
2009,07,11,02,26,0.00
2009,07,11,02,27,0.00
2009,07,11,02,28,0.00
2009,07,11,02,29,0.00
2009,07,11,02,30,0.00
2009,07,11,02,31,0.00
2009,07,11,02,32,0.00
2009,07,11,02,33,0.00
2009,07,11,02,34,0.00
2009,07,11,02,35,0.00
2009,07,11,02,36,0.00
2009,07,11,02,37,0.00
2009,07,11,02,38,0.00
2009,07,11,02,39,0.00
2009,07,11,02,40,0.00
2009,07,11,02,41,0.00
2009,07,11,02,42,0.00
2009,07,11,02,43,0.00
2009,07,11,02,44,0.00
2009,07,11,02,45,0.00
2009,07,11,02,46,0.00
2009,07,11,02,47,0.00
2009,07,11,02,48,0.00
2009,07,11,02,49,0.00
2009,07,11,02,50,0.00
2009,07,11,02,51,0.00
2009,07,11,02,52,0.00
2009,07,11,02,53,0.00
2009,07,11,02,54,0.00
2009,07,11,02,55,0.00
2009,07,11,02,56,0.00
2009,07,11,02,57,0.00
2009,07,11,02,58,0.00
2009,07,11,02,59,0.00
2009,07,11,03,00,0.00
2009,07,11,03,01,0.00
2009,07,11,03,02,0.00
2009,07,11,03,03,0.00
2009,07,11,03,04,0.00
2009,07,11,03,05,0.00
2009,07,11,03,06,0.00
2009,07,11,03,07,0.00
2009,07,11,03,08,0.00
2009,07,11,03,09,0.00
2009,07,11,03,10,0.00
2009,07,11,03,11,0.00
2009,07,11,03,12,0.00
2009,07,11,03,13,0.00
2009,07,11,03,14,0.00
2009,07,11,03,15,0.00
2009,07,11,03,16,0.00
2009,07,11,03,17,0.00
2009,07,11,03,18,0.00
2009,07,11,03,19,0.00
2009,07,11,03,20,0.00
2009,07,11,03,21,0.00
2009,07,11,03,22,0.00
2009,07,11,03,23,0.00
2009,07,11,03,24,0.00
2009,07,11,03,25,0.00
2009,07,11,03,26,0.00
2009,07,11,03,27,0.00
2009,07,11,03,28,0.00
2009,07,11,03,29,0.00
2009,07,11,03,30,0.00
2009,07,11,03,31,0.00
2009,07,11,03,32,0.00
2009,07,11,03,33,0.00
2009,07,11,03,34,0.00
2009,07,11,03,35,0.00
2009,07,11,03,36,0.00
2009,07,11,03,37,0.00
2009,07,11,03,38,0.00
2009,07,11,03,39,0.00
2009,07,11,03,40,0.00
2009,07,11,03,41,0.00
2009,07,11,03,42,0.00
2009,07,11,03,43,0.00
2009,07,11,03,44,0.00
2009,07,11,03,45,0.00
2009,07,11,03,46,0.00
2009,07,11,03,47,0.00
2009,07,11,03,48,0.00
2009,07,11,03,49,0.00
2009,07,11,03,50,0.00
2009,07,11,03,51,0.00
2009,07,11,03,52,0.00
2009,07,11,03,53,0.00
2009,07,11,03,54,0.00
2009,07,11,03,55,0.00
2009,07,11,03,56,0.00
2009,07,11,03,57,0.00
2009,07,11,03,58,0.00
2009,07,11,03,59,0.00
2009,07,11,04,00,0.00
2009,07,11,04,01,0.00
2009,07,11,04,02,0.00
2009,07,11,04,03,0.00
2009,07,11,04,04,0.00
2009,07,11,04,05,0.00
2009,07,11,04,06,0.00
2009,07,11,04,07,0.00
2009,07,11,04,08,0.00
2009,07,11,04,09,0.00
2009,07,11,04,10,0.00
2009,07,11,04,11,0.00
2009,07,11,04,12,0.00
2009,07,11,04,13,0.00
2009,07,11,04,14,0.00
2009,07,11,04,15,0.00
2009,07,11,04,16,0.00
2009,07,11,04,17,0.00
2009,07,11,04,18,0.00
2009,07,11,04,19,0.00
2009,07,11,04,20,0.00
2009,07,11,04,21,0.00
2009,07,11,04,22,0.00
2009,07,11,04,23,0.00
2009,07,11,04,24,0.00
2009,07,11,04,25,0.00
2009,07,11,04,26,0.00
2009,07,11,04,27,0.00
2009,07,11,04,28,0.00
2009,07,11,04,29,0.00
2009,07,11,04,30,0.00
2009,07,11,04,31,0.00
2009,07,11,04,32,0.00
2009,07,11,04,33,0.00
2009,07,11,04,34,0.00
2009,07,11,04,35,0.00
2009,07,11,04,36,0.00
2009,07,11,04,37,0.00
2009,07,11,04,38,0.00
2009,07,11,04,39,0.00
2009,07,11,04,40,0.00
2009,07,11,04,41,0.00
2009,07,11,04,42,0.00
2009,07,11,04,43,0.00
2009,07,11,04,44,0.00
2009,07,11,04,45,0.00
2009,07,11,04,46,0.00
2009,07,11,04,47,0.00
2009,07,11,04,48,0.00
2009,07,11,04,49,0.00
2009,07,11,04,50,0.00
2009,07,11,04,51,0.00
2009,07,11,04,52,0.00
2009,07,11,04,53,0.00
2009,07,11,04,54,0.00
2009,07,11,04,55,0.00
2009,07,11,04,56,0.00
2009,07,11,04,57,0.00
2009,07,11,04,58,0.00
2009,07,11,04,59,0.00
2009,07,11,05,00,0.00
2009,07,11,05,01,0.00
2009,07,11,05,02,0.00
2009,07,11,05,03,0.00
2009,07,11,05,04,0.00
2009,07,11,05,05,0.00
2009,07,11,05,06,0.00
2009,07,11,05,07,0.00
2009,07,11,05,08,0.00
2009,07,11,05,09,0.00
2009,07,11,05,10,0.00
2009,07,11,05,11,0.00
2009,07,11,05,12,0.00
2009,07,11,05,13,0.00
2009,07,11,05,14,0.00
2009,07,11,05,15,0.00
2009,07,11,05,16,0.00
2009,07,11,05,17,0.00
2009,07,11,05,18,0.00
2009,07,11,05,19,0.00
2009,07,11,05,20,0.00
2009,07,11,05,21,0.00
2009,07,11,05,22,0.00
2009,07,11,05,23,0.00
2009,07,11,05,24,0.00
2009,07,11,05,25,0.00
2009,07,11,05,26,0.00
2009,07,11,05,27,0.00
2009,07,11,05,28,0.00
2009,07,11,05,29,0.00
2009,07,11,05,30,0.00
2009,07,11,05,31,4.50
2009,07,11,05,32,5.00
2009,07,11,05,33,6.80
2009,07,11,05,34,7.00
2009,07,11,05,35,7.00
2009,07,11,05,36,8.80
2009,07,11,05,37,9.00
2009,07,11,05,38,9.00
2009,07,11,05,39,10.60
2009,07,11,05,40,11.00
2009,07,11,05,41,11.00
2009,07,11,05,42,11.90
2009,07,11,05,43,12.00
2009,07,11,05,44,13.80
2009,07,11,05,45,14.00
2009,07,11,05,46,15.80
2009,07,11,05,47,16.00
2009,07,11,05,48,17.80
2009,07,11,05,49,18.00
2009,07,11,05,50,18.90
2009,07,11,05,51,19.00
2009,07,11,05,52,20.80
2009,07,11,05,53,21.00
2009,07,11,05,54,21.00
2009,07,11,05,55,24.20
2009,07,11,05,56,25.00
2009,07,11,05,57,25.00
2009,07,11,05,58,25.90
2009,07,11,05,59,25.20
2009,07,11,06,00,25.00
2009,07,11,06,01,25.00
2009,07,11,06,02,25.00
2009,07,11,06,03,25.00
2009,07,11,06,04,25.80
2009,07,11,06,05,26.00
2009,07,11,06,06,26.00
2009,07,11,06,07,26.00
2009,07,11,06,08,27.80
2009,07,11,06,09,31.60
2009,07,11,06,10,36.00
2009,07,11,06,11,42.60
2009,07,11,06,12,46.70
2009,07,11,06,13,48.80
2009,07,11,06,14,50.80
2009,07,11,06,15,52.70
2009,07,11,06,16,53.90
2009,07,11,06,17,55.80
2009,07,11,06,18,57.80
2009,07,11,06,19,59.60
2009,07,11,06,20,61.80
2009,07,11,06,21,64.70
2009,07,11,06,22,63.20
2009,07,11,06,23,62.10
2009,07,11,06,24,62.90
2009,07,11,06,25,64.80
2009,07,11,06,26,66.60
2009,07,11,06,27,68.80
2009,07,11,06,28,69.90
2009,07,11,06,29,73.60
2009,07,11,06,30,75.60
2009,07,11,06,31,76.90
2009,07,11,06,32,78.80
2009,07,11,06,33,80.80
2009,07,11,06,34,82.80
2009,07,11,06,35,83.80
2009,07,11,06,36,85.80
2009,07,11,06,37,87.60
2009,07,11,06,38,89.80
2009,07,11,06,39,90.80
2009,07,11,06,40,92.80
2009,07,11,06,41,94.80
2009,07,11,06,42,97.50
2009,07,11,06,43,99.80
2009,07,11,06,44,100.00
2009,07,11,06,45,100.00
2009,07,11,06,46,104.40
2009,07,11,06,47,106.60
2009,07,11,06,48,108.80
2009,07,11,06,49,110.80
2009,07,11,06,50,112.80
2009,07,11,06,51,115.70
2009,07,11,06,52,116.00
2009,07,11,06,53,119.40
2009,07,11,06,54,120.90
2009,07,11,06,55,122.80
2009,07,11,06,56,124.60
2009,07,11,06,57,125.00
2009,07,11,06,58,129.00
2009,07,11,06,59,131.80
2009,07,11,07,00,134.50
2009,07,11,07,01,136.80
2009,07,11,07,02,138.80
2009,07,11,07,03,137.20
2009,07,11,07,04,142.60
2009,07,11,07,05,145.80
2009,07,11,07,06,148.70
2009,07,11,07,07,150.80
2009,07,11,07,08,152.80
2009,07,11,07,09,155.40
2009,07,11,07,10,157.60
2009,07,11,07,11,159.80
2009,07,11,07,12,161.80
2009,07,11,07,13,164.70
2009,07,11,07,14,166.60
2009,07,11,07,15,170.60
2009,07,11,07,16,171.90
2009,07,11,07,17,175.60
2009,07,11,07,18,177.80
2009,07,11,07,19,180.70
2009,07,11,07,20,182.60
2009,07,11,07,21,185.70
2009,07,11,07,22,187.80
2009,07,11,07,23,189.80
2009,07,11,07,24,192.40
2009,07,11,07,25,196.60
2009,07,11,07,26,198.80
2009,07,11,07,27,201.70
2009,07,11,07,28,203.60
2009,07,11,07,29,206.70
2009,07,11,07,30,208.70
2009,07,11,07,31,210.80
2009,07,11,07,32,213.70
2009,07,11,07,33,217.20
2009,07,11,07,34,220.70
2009,07,11,07,35,224.60
2009,07,11,07,36,225.00
2009,07,11,07,37,229.00
2009,07,11,07,38,233.40
2009,07,11,07,39,236.70
2009,07,11,07,40,240.60
2009,07,11,07,41,243.70
2009,07,11,07,42,245.80
2009,07,11,07,43,246.00
2009,07,11,07,44,250.50
2009,07,11,07,45,252.80
2009,07,11,07,46,256.60
2009,07,11,07,47,257.80
2009,07,11,07,48,261.60
2009,07,11,07,49,263.80
2009,07,11,07,50,266.70
2009,07,11,07,51,268.80
2009,07,11,07,52,270.80
2009,07,11,07,53,273.40
2009,07,11,07,54,275.80
2009,07,11,07,55,277.80
2009,07,11,07,56,280.70
2009,07,11,07,57,282.80
2009,07,11,07,58,286.60
2009,07,11,07,59,289.70
2009,07,11,08,00,290.00
2009,07,11,08,01,294.50
2009,07,11,08,02,296.80
2009,07,11,08,03,300.60
2009,07,11,08,04,303.70
2009,07,11,08,05,305.80
2009,07,11,08,06,308.70
2009,07,11,08,07,310.80
2009,07,11,08,08,314.60
2009,07,11,08,09,315.90
2009,07,11,08,10,319.60
2009,07,11,08,11,321.60
2009,07,11,08,12,324.70
2009,07,11,08,13,328.60
2009,07,11,08,14,329.80
2009,07,11,08,15,331.70
2009,07,11,08,16,335.60
2009,07,11,08,17,337.80
2009,07,11,08,18,340.70
2009,07,11,08,19,342.80
2009,07,11,08,20,343.00
2009,07,11,08,21,349.30
2009,07,11,08,22,351.80
2009,07,11,08,23,354.40
2009,07,11,08,24,355.00
2009,07,11,08,25,359.40
2009,07,11,08,26,361.60
2009,07,11,08,27,362.00
2009,07,11,08,28,366.50
2009,07,11,08,29,370.60
2009,07,11,08,30,373.70
2009,07,11,08,31,375.80
2009,07,11,08,32,379.60
2009,07,11,08,33,380.90
2009,07,11,08,34,381.00
2009,07,11,08,35,387.20
2009,07,11,08,36,389.60
2009,07,11,08,37,391.80
2009,07,11,08,38,395.60
2009,07,11,08,39,398.70
2009,07,11,08,40,402.60
2009,07,11,08,41,403.80
2009,07,11,08,42,407.60
2009,07,11,08,43,410.70
2009,07,11,08,44,412.80
2009,07,11,08,45,414.70
2009,07,11,08,46,417.70
2009,07,11,08,47,421.20
2009,07,11,08,48,424.50
2009,07,11,08,49,426.80
2009,07,11,08,50,430.60
2009,07,11,08,51,431.00
2009,07,11,08,52,433.70
2009,07,11,08,53,435.80
2009,07,11,08,54,438.70
2009,07,11,08,55,442.60
2009,07,11,08,56,445.70
2009,07,11,08,57,447.60
2009,07,11,08,58,449.80
2009,07,11,08,59,451.60
2009,07,11,09,00,454.70
2009,07,11,09,01,458.60
2009,07,11,09,02,460.80
2009,07,11,09,03,463.70
2009,07,11,09,04,465.80
2009,07,11,09,05,468.70
2009,07,11,09,06,470.60
2009,07,11,09,07,474.60
2009,07,11,09,08,477.70
2009,07,11,09,09,479.80
2009,07,11,09,10,482.70
2009,07,11,09,11,484.80
2009,07,11,09,12,488.60
2009,07,11,09,13,489.80
2009,07,11,09,14,493.60
2009,07,11,09,15,496.40
2009,07,11,09,16,498.80
2009,07,11,09,17,502.40
2009,07,11,09,18,503.90
2009,07,11,09,19,507.60
2009,07,11,09,20,508.00
2009,07,11,09,21,511.60
2009,07,11,09,22,512.90
2009,07,11,09,23,516.60
2009,07,11,09,24,519.70
2009,07,11,09,25,521.80
2009,07,11,09,26,522.00
2009,07,11,09,27,525.40
2009,07,11,09,28,526.90
2009,07,11,09,29,530.60
2009,07,11,09,30,532.80
2009,07,11,09,31,533.90
2009,07,11,09,32,537.60
2009,07,11,09,33,539.80
2009,07,11,09,34,542.40
2009,07,11,09,35,543.00
2009,07,11,09,36,546.60
2009,07,11,09,37,547.80
2009,07,11,09,38,549.80
2009,07,11,09,39,553.60
2009,07,11,09,40,554.90
2009,07,11,09,41,558.20
2009,07,11,09,42,560.70
2009,07,11,09,43,563.70
2009,07,11,09,44,565.80
2009,07,11,09,45,569.60
2009,07,11,09,46,570.00
2009,07,11,09,47,572.40
2009,07,11,09,48,574.80
2009,07,11,09,49,576.80
2009,07,11,09,50,577.90
2009,07,11,09,51,579.80
2009,07,11,09,52,581.60
2009,07,11,09,53,583.80
2009,07,11,09,54,586.70
2009,07,11,09,55,588.60
2009,07,11,09,56,591.70
2009,07,11,09,57,593.80
2009,07,11,09,58,597.60
2009,07,11,09,59,598.90
2009,07,11,10,00,600.60
2009,07,11,10,01,604.60
2009,07,11,10,02,607.40
2009,07,11,10,03,609.80
2009,07,11,10,04,612.40
2009,07,11,10,05,614.80
2009,07,11,10,06,616.60
2009,07,11,10,07,618.80
2009,07,11,10,08,621.70
2009,07,11,10,09,622.00
2009,07,11,10,10,625.20
2009,07,11,10,11,627.80
2009,07,11,10,12,630.70
2009,07,11,10,13,631.00
2009,07,11,10,14,634.60
2009,07,11,10,15,635.80
2009,07,11,10,16,636.00
2009,07,11,10,17,641.40
2009,07,11,10,18,642.90
2009,07,11,10,19,644.80
2009,07,11,10,20,648.60
2009,07,11,10,21,649.00
2009,07,11,10,22,651.70
2009,07,11,10,23,653.80
2009,07,11,10,24,655.60
2009,07,11,10,25,658.50
2009,07,11,10,26,659.00
2009,07,11,10,27,662.60
2009,07,11,10,28,665.40
2009,07,11,10,29,667.80
2009,07,11,10,30,668.00
2009,07,11,10,31,670.70
2009,07,11,10,32,672.80
2009,07,11,10,33,673.00
2009,07,11,10,34,676.60
2009,07,11,10,35,678.60
2009,07,11,10,36,679.90
2009,07,11,10,37,681.80
2009,07,11,10,38,683.60
2009,07,11,10,39,686.70
2009,07,11,10,40,687.00
2009,07,11,10,41,688.80
2009,07,11,10,42,690.80
2009,07,11,10,43,692.80
2009,07,11,10,44,695.70
2009,07,11,10,45,697.80
2009,07,11,10,46,699.60
2009,07,11,10,47,702.70
2009,07,11,10,48,704.80
2009,07,11,10,49,705.00
2009,07,11,10,50,706.60
2009,07,11,10,51,707.90
2009,07,11,10,52,711.60
2009,07,11,10,53,713.60
2009,07,11,10,54,714.90
2009,07,11,10,55,716.80
2009,07,11,10,56,718.80
2009,07,11,10,57,719.00
2009,07,11,10,58,723.40
2009,07,11,10,59,724.00
2009,07,11,11,00,725.60
2009,07,11,11,01,727.60
2009,07,11,11,02,728.90
2009,07,11,11,03,729.00
2009,07,11,11,04,730.80
2009,07,11,11,05,734.60
2009,07,11,11,06,735.00
2009,07,11,11,07,737.70
2009,07,11,11,08,739.80
2009,07,11,11,09,740.00
2009,07,11,11,10,741.80
2009,07,11,11,11,743.60
2009,07,11,11,12,744.00
2009,07,11,11,13,748.40
2009,07,11,11,14,749.00
2009,07,11,11,15,750.80
2009,07,11,11,16,751.90
2009,07,11,11,17,752.00
2009,07,11,11,18,757.10
2009,07,11,11,19,754.40
2009,07,11,11,20,755.80
2009,07,11,11,21,758.70
2009,07,11,11,22,759.00
2009,07,11,11,23,760.80
2009,07,11,11,24,764.20
2009,07,11,11,25,765.00
2009,07,11,11,26,765.00
2009,07,11,11,27,765.90
2009,07,11,11,28,766.00
2009,07,11,11,29,771.30
2009,07,11,11,30,772.80
2009,07,11,11,31,773.00
2009,07,11,11,32,776.60
2009,07,11,11,33,778.80
2009,07,11,11,34,779.00
2009,07,11,11,35,779.90
2009,07,11,11,36,783.40
2009,07,11,11,37,784.00
2009,07,11,11,38,782.20
2009,07,11,11,39,783.80
2009,07,11,11,40,785.80
2009,07,11,11,41,788.70
2009,07,11,11,42,790.80
2009,07,11,11,43,792.80
2009,07,11,11,44,791.20
2009,07,11,11,45,792.80
2009,07,11,11,46,795.70
2009,07,11,11,47,796.00
2009,07,11,11,48,799.60
2009,07,11,11,49,798.20
2009,07,11,11,50,799.80
2009,07,11,11,51,801.80
2009,07,11,11,52,802.00
2009,07,11,11,53,804.70
2009,07,11,11,54,805.00
2009,07,11,11,55,806.80
2009,07,11,11,56,808.80
2009,07,11,11,57,809.90
2009,07,11,11,58,810.00
2009,07,11,11,59,811.80
2009,07,11,12,00,812.00
2009,07,11,12,01,810.20
2009,07,11,12,02,813.60
2009,07,11,12,03,814.00
2009,07,11,12,04,815.80
2009,07,11,12,05,816.00
2009,07,11,12,06,816.90
2009,07,11,12,07,818.60
2009,07,11,12,08,817.20
2009,07,11,12,09,818.80
2009,07,11,12,10,819.00
2009,07,11,12,11,820.60
2009,07,11,12,12,821.00
2009,07,11,12,13,823.70
2009,07,11,12,14,824.00
2009,07,11,12,15,824.00
2009,07,11,12,16,824.00
2009,07,11,12,17,825.70
2009,07,11,12,18,826.00
2009,07,11,12,19,826.00
2009,07,11,12,20,827.80
2009,07,11,12,21,829.60
2009,07,11,12,22,830.00
2009,07,11,12,23,832.70
2009,07,11,12,24,831.30
2009,07,11,12,25,834.60
2009,07,11,12,26,833.40
2009,07,11,12,27,834.80
2009,07,11,12,28,836.80
2009,07,11,12,29,837.00
2009,07,11,12,30,837.90
2009,07,11,12,31,837.10
2009,07,11,12,32,837.90
2009,07,11,12,33,839.80
2009,07,11,12,34,841.80
2009,07,11,12,35,842.00
2009,07,11,12,36,843.80
2009,07,11,12,37,844.00
2009,07,11,12,38,846.70
2009,07,11,12,39,847.00
2009,07,11,12,40,847.00
2009,07,11,12,41,847.00
2009,07,11,12,42,850.60
2009,07,11,12,43,851.00
2009,07,11,12,44,853.40
2009,07,11,12,45,855.60
2009,07,11,12,46,856.00
2009,07,11,12,47,856.00
2009,07,11,12,48,856.00
2009,07,11,12,49,856.00
2009,07,11,12,50,857.80
2009,07,11,12,51,858.00
2009,07,11,12,52,859.80
2009,07,11,12,53,858.20
2009,07,11,12,54,860.70
2009,07,11,12,55,858.30
2009,07,11,12,56,859.80
2009,07,11,12,57,860.90
2009,07,11,12,58,860.10
2009,07,11,12,59,860.00
2009,07,11,13,00,860.00
2009,07,11,13,01,860.00
2009,07,11,13,02,860.00
2009,07,11,13,03,858.20
2009,07,11,13,04,859.80
2009,07,11,13,05,860.00
2009,07,11,13,06,860.90
2009,07,11,13,07,860.10
2009,07,11,13,08,860.90
2009,07,11,13,09,861.00
2009,07,11,13,10,866.30
2009,07,11,13,11,867.00
2009,07,11,13,12,863.40
2009,07,11,13,13,864.80
2009,07,11,13,14,866.80
2009,07,11,13,15,863.40
2009,07,11,13,16,864.80
2009,07,11,13,17,865.00
2009,07,11,13,18,865.00
2009,07,11,13,19,865.00
2009,07,11,13,20,866.80
2009,07,11,13,21,865.20
2009,07,11,13,22,865.00
2009,07,11,13,23,865.00
2009,07,11,13,24,866.80
2009,07,11,13,25,865.20
2009,07,11,13,26,863.20
2009,07,11,13,27,861.20
2009,07,11,13,28,861.00
2009,07,11,13,29,861.00
2009,07,11,13,30,861.00
2009,07,11,13,31,861.00
2009,07,11,13,32,861.00
2009,07,11,13,33,862.80
2009,07,11,13,34,863.00
2009,07,11,13,35,866.60
2009,07,11,13,36,863.80
2009,07,11,13,37,863.00
2009,07,11,13,38,863.00
2009,07,11,13,39,864.60
2009,07,11,13,40,865.00
2009,07,11,13,41,863.20
2009,07,11,13,42,861.40
2009,07,11,13,43,861.00
2009,07,11,13,44,862.80
2009,07,11,13,45,863.00
2009,07,11,13,46,860.60
2009,07,11,13,47,860.00
2009,07,11,13,48,860.00
2009,07,11,13,49,860.00
2009,07,11,13,50,860.90
2009,07,11,13,51,860.10
2009,07,11,13,52,856.40
2009,07,11,13,53,856.00
2009,07,11,13,54,857.60
2009,07,11,13,55,856.20
2009,07,11,13,56,856.00
2009,07,11,13,57,854.40
2009,07,11,13,58,853.10
2009,07,11,13,59,851.20
2009,07,11,14,00,851.00
2009,07,11,14,01,849.20
2009,07,11,14,02,849.00
2009,07,11,14,03,850.80
2009,07,11,14,04,849.20
2009,07,11,14,05,849.00
2009,07,11,14,06,849.00
2009,07,11,14,07,846.60
2009,07,11,14,08,842.40
2009,07,11,14,09,840.20
2009,07,11,14,10,838.20
2009,07,11,14,11,837.20
2009,07,11,14,12,835.20
2009,07,11,14,13,836.80
2009,07,11,14,14,837.00
2009,07,11,14,15,835.20
2009,07,11,14,16,835.00
2009,07,11,14,17,835.00
2009,07,11,14,18,835.00
2009,07,11,14,19,833.20
2009,07,11,14,20,833.00
2009,07,11,14,21,833.00
2009,07,11,14,22,831.20
2009,07,11,14,23,831.00
2009,07,11,14,24,831.00
2009,07,11,14,25,830.10
2009,07,11,14,26,830.90
2009,07,11,14,27,830.20
2009,07,11,14,28,828.20
2009,07,11,14,29,826.20
2009,07,11,14,30,826.00
2009,07,11,14,31,826.00
2009,07,11,14,32,823.30
2009,07,11,14,33,823.00
2009,07,11,14,34,821.20
2009,07,11,14,35,822.80
2009,07,11,14,36,819.40
2009,07,11,14,37,817.20
2009,07,11,14,38,816.10
2009,07,11,14,39,814.20
2009,07,11,14,40,812.20
2009,07,11,14,41,812.00
2009,07,11,14,42,810.30
2009,07,11,14,43,807.30
2009,07,11,14,44,807.00
2009,07,11,14,45,807.00
2009,07,11,14,46,805.20
2009,07,11,14,47,805.00
2009,07,11,14,48,805.00
2009,07,11,14,49,805.00
2009,07,11,14,50,802.30
2009,07,11,14,51,802.00
2009,07,11,14,52,800.20
2009,07,11,14,53,798.20
2009,07,11,14,54,798.00
2009,07,11,14,55,796.20
2009,07,11,14,56,796.00
2009,07,11,14,57,796.00
2009,07,11,14,58,795.10
2009,07,11,14,59,791.40
2009,07,11,15,00,791.00
2009,07,11,15,01,791.00
2009,07,11,15,02,789.40
2009,07,11,15,03,789.00
2009,07,11,15,04,786.30
2009,07,11,15,05,788.70
2009,07,11,15,06,788.10
2009,07,11,15,07,786.40
2009,07,11,15,08,781.20
2009,07,11,15,09,781.80
2009,07,11,15,10,780.20
2009,07,11,15,11,779.20
2009,07,11,15,12,779.80
2009,07,11,15,13,774.30
2009,07,11,15,14,774.80
2009,07,11,15,15,775.00
2009,07,11,15,16,775.00
2009,07,11,15,17,775.00
2009,07,11,15,18,773.20
2009,07,11,15,19,773.00
2009,07,11,15,20,770.30
2009,07,11,15,21,770.00
2009,07,11,15,22,770.00
2009,07,11,15,23,766.40
2009,07,11,15,24,766.00
2009,07,11,15,25,766.00
2009,07,11,15,26,765.10
2009,07,11,15,27,761.40
2009,07,11,15,28,761.00
2009,07,11,15,29,759.20
2009,07,11,15,30,758.10
2009,07,11,15,31,758.90
2009,07,11,15,32,754.50
2009,07,11,15,33,755.80
2009,07,11,15,34,754.20
2009,07,11,15,35,751.60
2009,07,11,15,36,751.00
2009,07,11,15,37,747.40
2009,07,11,15,38,747.00
2009,07,11,15,39,747.00
2009,07,11,15,40,745.20
2009,07,11,15,41,744.10
2009,07,11,15,42,742.20
2009,07,11,15,43,740.20
2009,07,11,15,44,738.20
2009,07,11,15,45,737.20
2009,07,11,15,46,733.40
2009,07,11,15,47,733.00
2009,07,11,15,48,729.40
2009,07,11,15,49,728.10
2009,07,11,15,50,724.40
2009,07,11,15,51,725.60
2009,07,11,15,52,722.60
2009,07,11,15,53,721.10
2009,07,11,15,54,717.40
2009,07,11,15,55,715.20
2009,07,11,15,56,714.10
2009,07,11,15,57,710.40
2009,07,11,15,58,710.00
2009,07,11,15,59,708.40
2009,07,11,16,00,707.20
2009,07,11,16,01,705.20
2009,07,11,16,02,703.20
2009,07,11,16,03,700.30
2009,07,11,16,04,700.00
2009,07,11,16,05,696.40
2009,07,11,16,06,696.00
2009,07,11,16,07,694.20
2009,07,11,16,08,691.30
2009,07,11,16,09,691.00
2009,07,11,16,10,689.40
2009,07,11,16,11,687.20
2009,07,11,16,12,684.30
2009,07,11,16,13,684.00
2009,07,11,16,14,680.40
2009,07,11,16,15,679.20
2009,07,11,16,16,679.80
2009,07,11,16,17,675.50
2009,07,11,16,18,675.00
2009,07,11,16,19,673.20
2009,07,11,16,20,670.30
2009,07,11,16,21,670.00
2009,07,11,16,22,666.60
2009,07,11,16,23,664.20
2009,07,11,16,24,663.10
2009,07,11,16,25,661.20
2009,07,11,16,26,659.20
2009,07,11,16,27,657.20
2009,07,11,16,28,654.30
2009,07,11,16,29,650.40
2009,07,11,16,30,649.10
2009,07,11,16,31,647.20
2009,07,11,16,32,648.80
2009,07,11,16,33,644.20
2009,07,11,16,34,642.10
2009,07,11,16,35,638.40
2009,07,11,16,36,636.40
2009,07,11,16,37,635.20
2009,07,11,16,38,633.20
2009,07,11,16,39,631.20
2009,07,11,16,40,629.20
2009,07,11,16,41,628.10
2009,07,11,16,42,626.20
2009,07,11,16,43,624.20
2009,07,11,16,44,621.30
2009,07,11,16,45,619.20
2009,07,11,16,46,615.40
2009,07,11,16,47,613.20
2009,07,11,16,48,612.20
2009,07,11,16,49,610.30
2009,07,11,16,50,606.40
2009,07,11,16,51,605.10
2009,07,11,16,52,601.80
2009,07,11,16,53,599.20
2009,07,11,16,54,596.30
2009,07,11,16,55,594.20
2009,07,11,16,56,592.20
2009,07,11,16,57,592.00
2009,07,11,16,58,587.50
2009,07,11,16,59,584.30
2009,07,11,17,00,584.00
2009,07,11,17,01,578.60
2009,07,11,17,02,578.00
2009,07,11,17,03,575.30
2009,07,11,17,04,571.40
2009,07,11,17,05,570.10
2009,07,11,17,06,568.20